EW5922 Weather Reports


time (UTC)temp
C
wind
direction
speed
KPH
gust
KPH
rain 1hr
cm
rain 24hr
cm
rain mn
cm
humidity
%
barometer
mb
20260901112653 23 245 0.0 1.6 0.00 0.00 0.00 95 1016.4
20260901112152 23 264 0.0 4.8 0.00 0.00 0.00 95 1016.5
20260901111652 23 246 0.0 4.8 0.00 0.00 0.00 95 1016.4
20260901110652 22 265 1.6 6.4 0.00 0.00 0.00 95 1016.6
20260901110152 22 276 0.0 6.4 0.00 0.00 0.00 95 1016.6
20260901105652 22 274 3.2 4.8 0.00 0.00 0.00 94 1016.3
20260901105151 22 264 1.6 4.8 0.00 0.00 0.00 94 1016.6
20260901104652 22 260 0.0 4.8 0.00 0.00 0.00 95 1016.3
20260901104153 22 245 0.0 4.8 0.00 0.00 0.00 95 1016.3
20260901102652 22 247 0.0 9.7 0.00 0.00 0.00 95 1016.4
20260901102152 22 249 0.0 9.7 0.00 0.00 0.00 94 1016.4
20260901101652 22 243 1.6 4.8 0.00 0.00 0.00 94 1016.2
20260901101152 22 257 0.0 3.2 0.00 0.00 0.00 94 1016.3
20260901100652 22 245 0.0 1.6 0.00 0.00 0.00 94 1016.3
20260901095652 22 255 0.0 4.8 0.00 0.00 0.00 94 1016.1
20260901095152 22 229 1.6 4.8 0.00 0.00 0.00 94 1016.2
20260901094150 22 246 1.6 3.2 0.00 0.00 0.00 94 1016.4
20260901093651 22 258 0.0 3.2 0.00 0.00 0.00 94 1016.2
20260901091151 22 235 1.6 3.2 0.00 0.00 0.00 94 1016.4
20260901090151 22 239 0.0 1.6 0.00 0.00 0.00 94 1016.3
20260901085651 22 242 0.0 3.2 0.00 0.00 0.00 94 1016.6
20260901085151 22 262 0.0 4.8 0.00 0.00 0.00 94 1016.6
20260901084651 22 259 0.0 4.8 0.00 0.00 0.00 94 1016.8
20260901083650 22 249 0.0 4.8 0.00 0.00 0.00 94 1016.7
20260901083151 22 246 0.0 3.2 0.00 0.00 0.00 94 1016.8
20260901082650 22 269 1.6 3.2 0.00 0.00 0.00 94 1016.9
20260901081651 22 253 0.0 4.8 0.00 0.00 0.00 94 1016.8
20260901081151 22 245 1.6 6.4 0.00 0.00 0.00 93 1016.5
20260901080651 22 248 0.0 6.4 0.00 0.00 0.00 93 1016.7
20260901080153 22 257 1.6 3.2 0.00 0.00 0.00 93 1016.5
20260901075151 22 244 0.0 1.6 0.00 0.00 0.00 93 1016.5
20260901074651 22 264 0.0 1.6 0.00 0.00 0.00 93 1016.5
20260901074152 22 274 0.0 3.2 0.00 0.00 0.00 93 1016.5
20260901073652 22 252 3.2 4.8 0.00 0.00 0.00 93 1016.6
20260901073152 22 251 0.0 4.8 0.00 0.00 0.00 93 1016.6
20260901072652 22 267 0.0 1.6 0.00 0.00 0.00 93 1016.8
20260901072151 22 245 0.0 0.0 0.00 0.00 0.00 93 1016.7
20260901071652 22 247 0.0 1.6 0.00 0.00 0.00 93 1016.9
20260901071153 22 239 0.0 1.6 0.00 0.00 0.00 93 1016.8
20260901070652 22 260 0.0 3.2 0.00 0.00 0.00 93 1017.0
20260901065654 22 261 0.0 3.2 0.00 0.00 0.00 93 1016.9
20260901065150 22 243 0.0 1.6 0.00 0.00 0.00 93 1017.2
20260901064650 22 244 0.0 3.2 0.00 0.00 0.00 93 1017.1
20260901064150 22 246 0.0 3.2 0.00 0.00 0.00 93 1017.1
20260901063650 22 249 0.0 3.2 0.00 0.00 0.00 93 1017.3
20260901063152 22 242 0.0 3.2 0.00 0.00 0.00 93 1017.2
20260901062151 22 273 0.0 3.2 0.00 0.00 0.00 92 1017.4
20260901060651 22 261 0.0 4.8 0.00 0.00 0.00 92 1017.3
20260901055651 22 243 3.2 3.2 0.00 0.00 0.00 91 1017.6
20260901055151 22 248 0.0 3.2 0.00 0.00 0.00 91 1017.4
20260901054638 22 287 0.0 4.8 0.00 0.00 0.00 91 1017.7
20260901054138 22 243 1.6 4.8 0.00 0.00 0.00 91 1017.9
20260901053638 22 238 1.6 4.8 0.00 0.00 0.00 91 1017.7
20260901053138 22 334 0.0 3.2 0.00 0.00 0.00 91 1018.1
20260901052638 22 275 0.0 3.2 0.00 0.00 0.00 91 1017.8
20260901052138 22 233 0.0 3.2 0.00 0.00 0.00 90 1017.6
20260901051640 22 263 1.6 3.2 0.00 0.00 0.00 90 1018.0
20260901050638 22 263 0.0 3.2 0.00 0.00 0.00 91 1018.2
20260901045638 22 252 0.0 3.2 0.00 0.00 0.00 90 1017.8
20260901045139 22 249 0.0 3.2 0.00 0.00 0.00 90 1018.5
20260901044639 22 243 1.6 3.2 0.00 0.00 0.00 90 1018.1
20260901044141 22 266 0.0 3.2 0.00 0.00 0.00 90 1018.1
20260901043639 22 258 0.0 4.8 0.00 0.00 0.00 90 1018.0
20260901043139 22 247 0.0 4.8 0.00 0.00 0.00 90 1017.9
20260901042639 22 181 3.2 3.2 0.00 0.00 0.00 90 1018.2
20260901042139 22 197 1.6 4.8 0.00 0.00 0.00 90 1018.1
20260901041639 22 240 0.0 4.8 0.00 0.00 0.00 90 1018.2
20260901041139 22 217 1.6 3.2 0.00 0.00 0.00 90 1017.8
20260901040639 22 270 0.0 1.6 0.00 0.00 0.00 90 1018.2
20260901040138 22 261 0.0 3.2 0.00 0.00 0.00 90 1018.3
20260901035638 22 282 1.6 3.2 0.00 0.00 0.00 90 1018.1
20260901035125 22 251 0.0 1.6 0.00 0.00 0.00 90 1018.0
20260901034625 22 264 0.0 1.6 0.00 0.00 0.00 90 1018.2
20260901034125 22 249 0.0 0.0 0.00 0.00 0.00 90 1018.3
20260901033113 22 269 0.0 1.6 0.00 0.00 0.00 90 1018.3
20260901032613 22 249 0.0 1.6 0.00 0.00 0.00 90 1018.5
20260901031601 22 277 0.0 1.6 0.00 0.00 0.00 90 1018.3
20260901030049 22 255 0.0 0.0 0.00 0.00 0.00 90 1018.6
20260901025549 22 259 0.0 0.0 0.00 0.00 0.00 90 1018.6
20260901025049 22 260 0.0 1.6 0.00 0.00 0.00 89 1018.6
20260901024549 22 282 0.0 1.6 0.00 0.00 0.00 89 1018.7
20260901024049 22 267 0.0 1.6 0.00 0.08 0.00 89 1018.7
20260901023549 22 245 0.0 1.6 0.00 0.08 0.00 89 1018.6
20260901023037 22 277 0.0 3.2 0.00 0.08 0.00 89 1018.6
20260901022536 22 116 3.2 3.2 0.00 0.08 0.00 89 1018.9
20260901021035 22 211 0.0 1.6 0.00 0.10 0.00 88 1018.6
20260901020536 22 262 0.0 1.6 0.00 0.10 0.00 88 1019.0
20260901020036 22 242 0.0 1.6 0.00 0.10 0.00 88 1018.9
20260901015537 22 259 0.0 1.6 0.00 0.10 0.00 88 1018.8
20260901014536 22 270 0.0 1.6 0.00 0.10 0.00 88 1018.9
20260901014035 22 233 0.0 1.6 0.00 0.10 0.00 88 1019.2
20260901013535 22 244 0.0 1.6 0.00 0.10 0.00 88 1019.0
20260901013036 22 242 0.0 1.6 0.00 0.10 0.00 88 1018.9
20260901012536 22 248 0.0 1.6 0.00 0.10 0.00 88 1018.8
20260901012036 22 270 0.0 1.6 0.00 0.10 0.00 88 1018.8
20260901011535 22 262 0.0 3.2 0.00 0.10 0.00 88 1019.0
20260901011036 22 261 0.0 3.2 0.00 0.10 0.00 87 1019.0
20260901010535 22 243 0.0 1.6 0.00 0.10 0.00 87 1018.9
20260901010036 22 299 0.0 1.6 0.00 0.10 0.00 87 1018.7
20260901005536 22 249 0.0 1.6 0.00 0.10 0.00 87 1018.8
20260901005036 22 249 0.0 1.6 0.00 0.10 0.00 87 1018.7
20260901004536 22 258 0.0 1.6 0.00 0.10 0.00 88 1018.9
20260901004038 22 251 0.0 1.6 0.00 0.10 0.00 88 1018.6
20260901003539 22 276 0.0 1.6 0.00 0.10 0.00 88 1018.5
20260901003038 22 241 0.0 1.6 0.00 0.10 0.00 88 1018.7
20260901002536 22 241 0.0 0.0 0.00 0.10 0.00 88 1018.8
20260901002036 22 244 0.0 1.6 0.00 0.10 0.00 88 1018.8
20260901001036 22 245 0.0 1.6 0.00 0.10 0.00 87 1018.7
20260901000537 22 203 1.6 1.6 0.00 0.10 0.00 87 1018.4
20260901000038 22 239 0.0 1.6 0.00 0.10 0.00 88 1018.6
20260831235538 22 255 0.0 0.0 0.00 0.10 0.00 88 1018.7
20260831235035 22 262 0.0 0.0 0.00 0.10 0.00 88 1018.6
20260831234035 23 243 0.0 1.6 0.00 0.10 0.00 87 1018.6
20260831233524 23 246 0.0 3.2 0.00 0.10 0.00 87 1018.7
20260831232525 23 240 0.0 3.2 0.00 0.10 0.00 87 1018.6
20260831232012 23 241 0.0 3.2 0.00 0.10 0.00 86 1018.7
20260831231514 23 242 0.0 3.2 0.00 0.10 0.00 86 1018.8
20260831231012 23 296 1.6 1.6 0.00 0.10 0.00 86 1018.6
20260831230500 23 261 0.0 1.6 0.00 0.10 0.00 86 1018.5
20260831225959 23 267 0.0 1.6 0.00 0.10 0.00 86 1019.0
20260831224949 23 253 0.0 3.2 0.00 0.10 0.00 86 1018.8
20260831223948 23 224 0.0 1.6 0.00 0.10 0.00 85 1018.6
20260831223448 23 243 0.0 1.6 0.00 0.10 0.00 84 1018.6
20260831222949 23 263 0.0 1.6 0.00 0.10 0.00 84 1018.7
20260831222449 24 255 0.0 3.2 0.00 0.10 0.00 84 1018.7
20260831221949 24 88 0.0 3.2 0.00 0.10 0.00 83 1018.7
20260831221449 24 222 1.6 1.6 0.00 0.10 0.00 83 1018.6
20260831220949 24 243 0.0 1.6 0.00 0.10 0.00 83 1018.7
20260831220449 24 247 0.0 1.6 0.00 0.10 0.00 84 1018.9
20260831215449 24 246 0.0 1.6 0.00 0.10 0.00 83 1018.8
20260831214449 25 241 1.6 1.6 0.00 0.10 0.00 82 1018.9
20260831213949 25 238 0.0 1.6 0.00 0.10 0.00 82 1019.0
20260831212948 25 264 0.0 3.2 0.00 0.10 0.00 80 1019.0
20260831212448 25 242 0.0 1.6 0.00 0.10 0.00 81 1019.1
20260831211948 25 242 0.0 1.6 0.00 0.10 0.00 81 1019.0
20260831211449 24 246 0.0 1.6 0.00 0.10 0.00 82 1019.1
20260831210949 24 242 0.0 1.6 0.00 0.10 0.00 81 1019.3
20260831210449 25 268 0.0 3.2 0.00 0.10 0.00 81 1019.1
20260831205949 24 245 0.0 3.2 0.00 0.10 0.00 80 1019.2
20260831205449 25 75 0.0 9.7 0.00 0.10 0.00 80 1019.1
20260831204448 25 279 0.0 3.2 0.00 0.10 0.00 79 1019.2
20260831203949 25 241 0.0 3.2 0.00 0.10 0.00 78 1019.0
20260831203449 25 247 0.0 3.2 0.00 0.10 0.00 79 1019.1
20260831202949 24 250 0.0 3.2 0.00 0.10 0.00 80 1019.3
20260831201949 24 342 0.0 1.6 0.00 0.10 0.00 81 1019.4
20260831201447 24 249 0.0 1.6 0.00 0.10 0.00 80 1019.6
20260831200949 24 240 1.6 3.2 0.00 0.10 0.00 80 1019.6
20260831200449 24 237 0.0 3.2 0.00 0.10 0.00 80 1019.8
20260831195949 23 238 1.6 3.2 0.00 0.10 0.00 80 1019.6
20260831195449 23 246 0.0 1.6 0.00 0.10 0.00 81 1019.7
20260831194947 23 241 0.0 1.6 0.00 0.10 0.00 81 1019.7
20260831194447 24 246 0.0 3.2 0.00 0.10 0.00 81 1019.9
20260831193947 24 222 1.6 3.2 0.00 0.10 0.00 80 1020.0
20260831193447 24 264 1.6 3.2 0.00 0.10 0.00 80 1019.8
20260831192947 24 243 0.0 3.2 0.00 0.10 0.00 80 1019.9
20260831192447 24 248 0.0 3.2 0.00 0.10 0.00 80 1020.1
20260831191948 24 232 0.0 1.6 0.00 0.10 0.00 79 1020.0
20260831191448 24 246 0.0 4.8 0.00 0.10 0.00 79 1020.1
20260831190948 24 247 0.0 4.8 0.00 0.10 0.00 79 1020.2
20260831185948 24 262 0.0 6.4 0.00 0.10 0.00 79 1020.1
20260831185448 23 216 0.0 6.4 0.00 0.10 0.00 79 1020.0
20260831184948 24 244 0.0 3.2 0.00 0.10 0.00 79 1020.1
20260831183947 24 88 1.6 4.8 0.00 0.10 0.00 78 1020.2
20260831183447 24 248 0.0 3.2 0.00 0.10 0.00 77 1020.5
20260831182948 25 239 0.0 3.2 0.00 0.10 0.00 77 1020.3
20260831182447 25 239 0.0 4.8 0.00 0.10 0.00 76 1020.3
20260831181446 25 242 0.0 6.4 0.00 0.10 0.00 76 1020.7
20260831180947 25 231 0.0 3.2 0.00 0.10 0.00 74 1020.7
20260831180447 25 221 0.0 3.2 0.00 0.10 0.00 73 1020.3
20260831175948 25 246 0.0 3.2 0.00 0.10 0.00 74 1020.4
20260831175447 25 198 1.6 4.8 0.00 0.10 0.00 73 1020.7
20260831174947 25 229 1.6 4.8 0.00 0.10 0.00 72 1020.6
20260831174447 25 243 0.0 4.8 0.00 0.10 0.00 73 1020.3
20260831173946 26 1 0.0 6.4 0.00 0.10 0.00 72 1020.4
20260831173447 26 3 0.0 6.4 0.00 0.10 0.00 72 1020.3
20260831172947 27 218 1.6 4.8 0.00 0.10 0.00 68 1020.5
20260831172447 27 346 1.6 4.8 0.00 0.10 0.00 69 1020.5
20260831170934 26 320 0.0 6.4 0.00 0.10 0.00 72 1020.4
20260831170435 26 257 0.0 6.4 0.00 0.10 0.00 72 1020.3
20260831165934 26 165 1.6 4.8 0.00 0.10 0.00 70 1020.3
20260831165435 26 358 0.0 3.2 0.00 0.10 0.00 71 1020.2
20260831164933 26 234 0.0 4.8 0.00 0.10 0.00 70 1020.5
20260831164433 26 41 1.6 4.8 0.00 0.10 0.00 69 1020.3
20260831163934 26 226 0.0 3.2 0.00 0.10 0.00 70 1020.5
20260831162934 26 269 0.0 3.2 0.00 0.10 0.00 70 1020.5
20260831162433 27 225 0.0 3.2 0.00 0.10 0.00 69 1020.5
20260831161434 27 243 0.0 4.8 0.00 0.10 0.00 70 1020.3
20260831160934 26 253 1.6 3.2 0.00 0.10 0.00 70 1020.6
20260831160434 26 255 0.0 1.6 0.00 0.10 0.00 70 1020.6
20260831155933 26 235 0.0 6.4 0.00 0.10 0.00 70 1020.9
20260831155433 26 247 0.0 6.4 0.00 0.10 0.00 70 1020.9
20260831154434 26 245 0.0 3.2 0.00 0.10 0.00 72 1020.3
20260831152934 25 229 0.0 4.8 0.00 0.10 0.00 74 1020.5
20260831152434 25 261 0.0 3.2 0.00 0.10 0.00 74 1020.8
20260831151934 25 232 0.0 1.6 0.00 0.10 0.00 74 1020.7
20260831151434 25 258 0.0 1.6 0.00 0.10 0.00 74 1020.8
20260831150934 25 258 0.0 3.2 0.00 0.10 0.00 75 1020.8
20260831150434 25 261 0.0 3.2 0.00 0.10 0.00 75 1020.7
20260831145934 24 301 0.0 3.2 0.00 0.10 0.00 75 1020.7
20260831145434 25 352 1.6 3.2 0.00 0.10 0.00 75 1020.8
20260831144934 24 243 0.0 4.8 0.00 0.10 0.00 76 1021.2
20260831144434 24 252 0.0 4.8 0.00 0.10 0.00 75 1021.0
20260831143934 24 291 1.6 4.8 0.00 0.10 0.00 76 1020.8
20260831143434 24 107 1.6 3.2 0.00 0.10 0.00 75 1021.0
20260831142934 24 312 0.0 4.8 0.00 0.10 0.00 76 1020.8
20260831142434 24 247 0.0 4.8 0.00 0.10 0.00 76 1020.6
20260831141934 24 248 0.0 3.2 0.00 0.10 0.00 76 1020.7
20260831141434 24 255 0.0 3.2 0.00 0.10 0.00 77 1020.6
20260831140934 23 267 0.0 1.6 0.00 0.10 0.00 77 1020.7
20260831140434 23 247 0.0 4.8 0.00 0.10 0.00 77 1020.7
20260831135933 23 326 1.6 4.8 0.00 0.10 0.00 77 1020.7
20260831135434 24 270 0.0 1.6 0.00 0.10 0.00 78 1020.6
20260831134934 23 265 0.0 4.8 0.00 0.10 0.00 79 1020.5
20260831134434 23 267 0.0 4.8 0.00 0.10 0.00 80 1020.8
20260831133938 23 264 0.0 3.2 0.00 0.10 0.00 80 1020.9
20260831133434 23 271 0.0 1.6 0.00 0.10 0.00 80 1020.8
20260831132934 23 253 0.0 3.2 0.00 0.10 0.00 81 1020.6
20260831132434 23 251 0.0 3.2 0.00 0.10 0.00 81 1020.7
20260831131933 23 246 0.0 3.2 0.00 0.10 0.00 82 1020.6
20260831130934 23 261 0.0 3.2 0.00 0.10 0.00 83 1020.6
20260831130434 23 263 0.0 3.2 0.00 0.10 0.00 84 1020.7
20260831125934 23 266 0.0 3.2 0.00 0.10 0.00 84 1020.8
20260831124934 22 251 0.0 1.6 0.00 0.10 0.00 86 1020.6
20260831124434 22 246 0.0 1.6 0.00 0.10 0.00 86 1020.6
20260831123934 22 247 0.0 1.6 0.00 0.10 0.00 86 1020.7
20260831123434 22 247 0.0 1.6 0.00 0.10 0.00 86 1020.5
20260831122934 22 250 0.0 0.0 0.00 0.10 0.00 87 1020.6
20260831122434 22 249 0.0 1.6 0.00 0.10 0.00 87 1020.5
20260831121934 22 268 0.0 3.2 0.00 0.10 0.00 87 1020.8
20260831121434 22 267 1.6 3.2 0.00 0.10 0.00 87 1020.6
20260831115934 22 250 0.0 0.0 0.00 0.10 0.00 88 1020.5
20260831115433 21 250 0.0 0.0 0.00 0.10 0.00 88 1020.6
20260831114934 21 249 0.0 0.0 0.00 0.10 0.00 88 1020.4
20260831114433 21 251 0.0 0.0 0.00 0.10 0.00 88 1020.5
20260831113933 21 251 0.0 0.0 0.00 0.10 0.00 88 1020.6
20260831113433 21 261 0.0 0.0 0.00 0.10 0.00 88 1020.2